GW0821 Weather Reports


time (UTC)temp
F
wind
direction
speed
knots
gust
knots
rain 1hr
in
rain 24hr
in
rain mn
in
humidity
%
barometer
mb
20260903091556 84 219 2.6 5.2 0.00 0.00 0.00 48 1022.3
20260903090058 83 177 2.6 6.1 0.00 0.00 0.00 50 1022.3
20260903084554 80 170 0.0 0.9 0.00 0.00 0.00 60 1022.4
20260903083058 77 267 0.9 2.6 0.00 0.00 0.00 64 1022.2
20260903081552 76 61 1.7 4.3 0.00 0.00 0.00 67 1022.3
20260903074553 73 347 1.7 5.2 0.00 0.00 0.00 71 1022.3
20260903073110 72 129 0.9 1.7 0.00 0.00 0.00 73 1022.3
20260903071553 70 144 1.7 3.5 0.00 0.00 0.00 75 1022.4
20260903070048 68 0 0.0 1.7 0.00 0.00 0.00 77 1022.5
20260903064556 67 0 0.0 0.0 0.00 0.00 0.00 81 1022.6
20260903063100 64 0 0.0 0.9 0.00 0.00 0.00 86 1022.6
20260903061553 62 223 0.0 0.0 0.00 0.00 0.00 87 1022.5
20260903060058 62 0 0.0 0.0 0.00 0.00 0.00 87 1022.4
20260903054555 62 0 0.0 0.0 0.00 0.00 0.00 87 1022.3
20260903053050 62 0 0.0 0.0 0.00 0.00 0.00 88 1022.2
20260903051601 61 0 0.0 0.0 0.00 0.00 0.00 88 1022.1
20260903050059 61 0 0.0 0.0 0.00 0.00 0.00 88 1022.0
20260903044551 61 0 0.0 0.0 0.00 0.00 0.00 87 1021.9
20260903043101 62 0 0.0 0.0 0.00 0.00 0.00 87 1021.9
20260903041556 62 0 0.0 0.0 0.00 0.00 0.00 87 1021.8
20260903040053 62 0 0.0 0.0 0.00 0.00 0.00 86 1021.9
20260903034548 62 0 0.0 0.0 0.00 0.00 0.00 86 1022.2
20260903033101 62 0 0.0 0.0 0.00 0.00 0.00 86 1022.2
20260903031554 63 0 0.0 0.0 0.00 0.00 0.00 85 1022.2
20260903030104 63 0 0.0 0.0 0.00 0.00 0.00 85 1022.3
20260903024548 63 0 0.0 0.0 0.00 0.00 0.00 85 1022.4
20260903023054 63 0 0.0 0.0 0.00 0.00 0.00 85 1022.4
20260903021552 63 0 0.0 0.0 0.00 0.00 0.00 84 1022.5
20260903020056 64 0 0.0 0.0 0.00 0.00 0.00 84 1022.5
20260903014557 64 0 0.0 0.0 0.00 0.00 0.00 83 1022.4
20260903013053 64 0 0.0 0.0 0.00 0.00 0.00 83 1022.5
20260903011557 64 0 0.0 0.9 0.00 0.00 0.00 83 1022.5
20260903010052 65 0 0.0 0.0 0.00 0.00 0.00 82 1022.6
20260903004559 65 0 0.0 0.0 0.00 0.00 0.00 81 1022.6
20260903003048 65 0 0.0 0.9 0.00 0.00 0.00 81 1022.6
20260903001555 66 0 0.0 0.0 0.00 0.00 0.00 80 1022.5
20260903000052 66 0 0.0 0.0 0.00 0.00 0.00 80 1022.5
20260902234549 66 0 0.0 0.0 0.00 0.00 0.00 80 1022.4
20260902233102 66 0 0.0 0.0 0.00 0.00 0.00 79 1022.2
20260902231552 67 0 0.0 0.0 0.00 0.00 0.00 79 1022.3
20260902230050 67 0 0.0 0.0 0.00 0.00 0.00 78 1022.3
20260902224554 68 0 0.0 0.0 0.00 0.00 0.00 78 1022.3
20260902223115 68 0 0.0 0.0 0.00 0.00 0.00 77 1022.3
20260902221554 68 0 0.0 0.9 0.00 0.00 0.00 77 1022.2
20260902220058 69 0 0.0 0.0 0.00 0.00 0.00 77 1022.2
20260902214554 69 0 0.0 0.0 0.00 0.00 0.00 76 1022.3
20260902213048 70 0 0.0 0.0 0.00 0.00 0.00 75 1022.0
20260902211556 70 0 0.0 0.0 0.00 0.00 0.00 74 1022.1
20260902210054 71 0 0.0 0.0 0.00 0.00 0.00 73 1022.0
20260902204632 71 0 0.0 0.0 0.00 0.00 0.00 73 1021.9
20260902203051 72 0 0.0 0.0 0.00 0.00 0.00 72 1021.9
20260902201554 73 0 0.0 0.9 0.00 0.00 0.00 71 1021.8
20260902200055 74 0 0.0 0.0 0.00 0.00 0.00 69 1021.6
20260902194549 74 0 0.0 0.0 0.00 0.00 0.00 68 1021.5
20260902193046 75 0 0.0 0.0 0.00 0.00 0.00 67 1021.3
20260902191553 75 262 0.0 1.7 0.00 0.00 0.00 66 1021.2
20260902190055 76 219 0.9 3.5 0.00 0.00 0.00 66 1020.9
20260902184549 77 0 0.9 2.6 0.00 0.00 0.00 64 1020.8
20260902183111 77 164 2.6 5.2 0.00 0.00 0.00 62 1020.6
20260902181602 78 165 0.9 4.3 0.00 0.00 0.00 60 1020.5
20260902180051 79 150 0.0 5.2 0.00 0.00 0.00 58 1020.3
20260902174551 80 240 0.9 5.2 0.00 0.00 0.00 57 1020.2
20260902173104 81 192 1.7 4.3 0.00 0.00 0.00 55 1020.2
20260902171554 83 147 3.5 7.0 0.00 0.00 0.00 54 1020.2
20260902170056 82 168 2.6 6.1 0.00 0.00 0.00 55 1020.0
20260902164602 84 151 2.6 9.6 0.00 0.00 0.00 53 1019.9
20260902163051 84 141 4.3 12.2 0.00 0.00 0.00 52 1019.9
20260902161551 85 141 4.3 12.2 0.00 0.00 0.00 51 1019.9
20260902160047 86 256 4.3 13.9 0.00 0.00 0.00 50 1019.9
20260902154555 86 184 4.3 13.0 0.00 0.00 0.00 49 1020.1
20260902153059 87 188 3.5 10.4 0.00 0.00 0.00 48 1020.0
20260902151549 87 113 3.5 9.6 0.00 0.00 0.00 46 1020.0
20260902150048 87 163 4.3 11.3 0.00 0.00 0.00 46 1019.9
20260902144552 87 144 4.3 8.7 0.00 0.00 0.00 46 1019.9
20260902143053 87 208 3.5 12.2 0.00 0.00 0.00 46 1020.2
20260902141549 87 136 4.3 12.2 0.00 0.00 0.00 46 1020.4
20260902140100 87 155 4.3 11.3 0.00 0.00 0.00 46 1020.4
20260902134554 87 206 4.3 11.3 0.00 0.00 0.00 45 1020.5
20260902133047 87 154 5.2 13.0 0.00 0.00 0.00 45 1020.6
20260902131549 86 174 4.3 12.2 0.00 0.00 0.00 46 1020.6
20260902130044 86 159 3.5 12.2 0.00 0.00 0.00 46 1020.6
20260902124553 86 165 6.1 14.8 0.00 0.00 0.00 45 1020.6
20260902123053 87 165 5.2 10.4 0.00 0.00 0.00 44 1020.7
20260902121549 87 170 6.1 12.2 0.00 0.00 0.00 44 1020.6
20260902120057 88 155 4.3 10.4 0.00 0.00 0.00 44 1020.3
20260902114554 88 206 3.5 9.6 0.00 0.00 0.00 41 1020.4
20260902113049 87 164 2.6 7.0 0.00 0.00 0.00 38 1020.3
20260902111602 87 215 2.6 9.6 0.00 0.00 0.00 39 1020.4
20260902104605 86 190 2.6 7.0 0.00 0.00 0.00 47 1020.5
20260902103122 85 293 2.6 5.2 0.00 0.00 0.00 48 1020.6
20260902101604 85 117 0.9 2.6 0.00 0.00 0.00 50 1020.7
20260902100053 84 0 0.9 2.6 0.00 0.00 0.00 51 1020.8
20260902094552 83 146 0.9 2.6 0.00 0.00 0.00 53 1020.9
20260902093046 82 93 0.9 3.5 0.00 0.00 0.00 55 1020.9